Location: Bill Sadowski Park
(25.6087°N, 80.3181°W)
Time: 15:11:06
(UTC-04:00)

Hubble Space Telescope - Visible Passes

Search period start: 22 June 2018 00:00
Search period end: 02 July 2018 00:00
Orbit: 537 x 541 km, 28.5° (Epoch: 22 June)

Date Brightness Start Highest point End Pass type
(mag) Time Alt. Az. Time Alt. Az. Time Alt. Az.
22 Jun 1.8 21:48:26 10° W 21:52:07 31° SSW 21:52:36 30° S visible
23 Jun 2.2 21:38:21 10° W 21:41:43 24° SSW 21:42:43 22° S visible
24 Jun 2.6 21:28:23 10° WSW 21:31:19 19° SSW 21:32:53 15° S visible
25 Jun 3.0 21:18:39 10° WSW 21:20:54 14° SSW 21:23:05 10° S visible
26 Jun 3.3 21:09:39 10° SW 21:10:29 10° SSW 21:11:19 10° SSW visible
